Location: Tyler Bend Campground
(35.9875°N, 92.7606°W)
Time: 02:12:44
(UTC-06:00)

CZ-2C R/B - Visible Passes

Search period start: 04 December 2016 00:00
Search period end: 14 December 2016 00:00
Orbit: 669 x 784 km, 98.1° (Epoch: 04 December)

Date Brightness Start Highest point End Pass type
(mag) Time Alt. Az. Time Alt. Az. Time Alt. Az.
04 Dec 5.7 05:10:11 10° ENE 05:12:28 13° E 05:14:44 10° ESE visible
04 Dec 2.7 17:52:03 10° S 17:56:57 74° WSW 18:02:03 10° NNW visible
05 Dec 3.9 05:58:18 10° NNE 06:03:12 42° E 06:07:57 10° S visible
05 Dec 5.0 18:43:42 10° SW 18:47:30 22° W 18:51:26 10° NW visible
06 Dec 5.6 05:12:22 10° ENE 05:14:56 14° E 05:17:26 10° ESE visible
06 Dec 2.8 17:54:28 10° S 17:59:23 70° W 18:04:29 10° NNW visible
07 Dec 3.8 06:00:43 10° NNE 06:05:39 45° E 06:10:25 10° S visible
07 Dec 5.1 18:46:15 10° SW 18:49:58 21° W 18:53:46 10° NW visible
08 Dec 5.6 05:14:37 10° ENE 05:17:23 15° E 05:20:07 10° SE visible
08 Dec 2.9 17:56:53 10° S 18:01:49 66° W 18:06:55 10° NNW visible
09 Dec 3.6 06:03:07 10° NNE 06:08:05 48° E 06:12:52 10° S visible
09 Dec 5.2 18:48:48 10° SW 18:52:24 20° W 18:56:07 10° NW visible
10 Dec 5.5 05:16:52 10° NE 05:19:51 15° E 05:22:45 10° SE visible
10 Dec 3.1 17:59:19 10° S 18:04:15 61° W 18:09:22 10° NNW visible
11 Dec 3.5 06:05:33 10° NNE 06:10:31 51° E 06:15:19 10° S visible
11 Dec 5.2 18:51:22 10° SW 18:54:52 19° W 18:58:27 10° NW visible
12 Dec 5.4 05:19:09 10° NE 05:22:18 16° E 05:25:22 10° SE visible
12 Dec 3.2 18:01:45 10° S 18:06:41 58° W 18:11:47 10° NNW visible
13 Dec 3.3 06:07:58 10° NNE 06:12:57 54° E 06:17:45 10° S visible
13 Dec 5.3 18:53:57 10° SW 18:57:19 18° W 19:00:45 10° NW visible
